Hettinger, ND

4:44 AM MDT on May 30, 2017 (GMT -0600)
Hettinger Municipal

Weather History for KHEI - May, 2013

Change the Weather History Date:

Friday, May 17, 2013

  Actual Average Record
Temperature  
Mean Temperature 61 °F -  
Max Temperature 80 °F 66 °F 89 °F (1998)
Min Temperature 41 °F 40 °F 28 °F (2002)
Degree Days  
Heating Degree Days 5    
Cooling Degree Days 0 0  
Month to date cooling degree days 7 0  
Year to date cooling degree days 7 0  
Growing Degree Days 10 (Base 50)    
Moisture  
Dew Point 49 °F    
Average Humidity 74    
Maximum Humidity 93    
Minimum Humidity 33    
Precipitation  
Precipitation 0.49 in 0.07 in 0.65 in (2000)
Month to date precipitation 0.54 1.27  
Year to date precipitation 1.77 4.23  
Sea Level Pressure  
Sea Level Pressure 29.82 in    
Wind  
Wind Speed 8 mph (East)    
Max Wind Speed 38 mph    
Max Gust Speed 53 mph    
Visibility 8 miles    
Events Rain , Thunderstorm    
T = Trace of Precipitation, MM = Missing Value Source: NWS Daily Summary

Daily Weather History Graph

Daily Weather History Graph

Search for Another Location

Airport or City:

Trip Planner

Search our weather history database for the weather conditions in past years. The results will help you decide how hot, cold, wet, or windy it might be!

Date:

Astronomy

May. 17, 2013 Rise Set
Actual Time 5:15 AM MDT 8:18 PM MDT
Civil Twilight 4:40 AM MDT 8:54 PM MDT
Nautical Twilight 3:54 AM MDT 9:40 PM MDT
Astronomical Twilight 2:59 AM MDT 10:35 PM MDT
Moon 12:00 PM MDT (5/17) 1:04 AM MDT (5/17)
Length of Visible Light 16h 14m
Length of Day
15h 03m
Waxing Crescent, 46% of the Moon is Illuminated
May 17
Waxing Crescent
May 17
First Quarter
May 24
Full
May 31
Last Quarter
Jun 8
New

Hourly Weather History & Observations

Time (MDT) Temp. Dew Point Humidity Pressure Visibility Wind Dir Wind Speed Gust Speed Precip Events Conditions
12:53 AM 50.0 °F 46.9 °F 89% 29.84 in 8.0 mi East 9.2 mph - N/A   Clear
1:53 AM 50.0 °F 46.9 °F 89% 29.84 in 9.0 mi East 6.9 mph - N/A   Clear
2:53 AM 50.0 °F 46.0 °F 86% 29.84 in 10.0 mi East 4.6 mph - N/A   Partly Cloudy
3:53 AM 48.9 °F 46.0 °F 90% 29.83 in 9.0 mi ESE 4.6 mph - N/A   Partly Cloudy
4:53 AM 46.9 °F 44.1 °F 90% 29.85 in 7.0 mi Calm Calm - N/A   Scattered Clouds
5:51 AM 41.0 °F 39.2 °F 93% 29.86 in 1.8 mi Calm Calm - N/A   Clear
5:52 AM 41.0 °F 39.0 °F 93% 29.88 in 1.5 mi Calm Calm - N/A   Clear
6:13 AM 44.6 °F 42.8 °F 93% 29.87 in 2.5 mi Calm Calm - N/A   Clear
6:26 AM 46.4 °F 44.6 °F 93% 29.86 in 3.0 mi Calm Calm - N/A   Clear
6:53 AM 51.1 °F 46.9 °F 86% 29.86 in 9.0 mi Calm Calm - N/A   Clear
7:53 AM 54.0 °F 48.0 °F 80% 29.87 in 10.0 mi SE 6.9 mph - N/A   Partly Cloudy
8:53 AM 61.0 °F 50.0 °F 67% 29.86 in 10.0 mi SE 9.2 mph - N/A   Clear
9:53 AM 66.0 °F 50.0 °F 56% 29.84 in 10.0 mi SE 6.9 mph - N/A   Clear
10:53 AM 70.0 °F 50.0 °F 49% 29.84 in 10.0 mi South 8.1 mph - N/A   Clear
11:53 AM 72.0 °F 51.1 °F 48% 29.82 in 10.0 mi SSE 9.2 mph - N/A   Clear
1:53 PM 77.0 °F 48.9 °F 37% 29.78 in 10.0 mi South 5.8 mph 16.1 mph N/A   Partly Cloudy
2:53 PM 77.0 °F 48.9 °F 37% 29.77 in 10.0 mi SE 8.1 mph - 0.00 in   Scattered Clouds
3:53 PM 79.0 °F 48.0 °F 34% 29.75 in 10.0 mi ESE 12.7 mph - N/A   Clear
4:53 PM 77.0 °F 46.9 °F 34% 29.73 in 10.0 mi SE 10.4 mph - N/A   Partly Cloudy
5:53 PM 77.0 °F 48.0 °F 36% 29.72 in 10.0 mi ESE 11.5 mph - N/A   Scattered Clouds
6:53 PM 73.9 °F 48.9 °F 41% 29.73 in 10.0 mi ESE 6.9 mph - 0.00 in Thunderstorm Mostly Cloudy
7:21 PM 59.0 °F 55.4 °F 88% 29.78 in 1.5 mi WNW 38.0 mph 44.9 mph 0.15 in Rain , Thunderstorm Heavy Thunderstorms and Rain
7:34 PM 57.2 °F 55.4 °F 94% 29.80 in 3.0 mi NNW 28.8 mph 52.9 mph 0.26 in Rain , Thunderstorm Thunderstorms and Rain
7:53 PM 57.0 °F 52.0 °F 83% 29.81 in 8.0 mi North 13.8 mph 29.9 mph 0.32 in Rain , Thunderstorm Light Thunderstorms and Rain
8:37 PM 57.2 °F 53.6 °F 88% 29.80 in 10.0 mi ENE 17.3 mph 27.6 mph 0.01 in   Scattered Clouds
8:53 PM 57.9 °F 53.1 °F 84% 29.78 in 10.0 mi NE 18.4 mph - 0.01 in   Mostly Cloudy
9:53 PM 57.9 °F 53.1 °F 84% 29.79 in 10.0 mi NE 13.8 mph - 0.00 in   Overcast
10:53 PM 59.0 °F 53.1 °F 81% 29.78 in 10.0 mi NNE 13.8 mph - 0.01 in   Overcast
11:29 PM 57.2 °F 53.6 °F 88% 29.86 in 9.0 mi NNW 15.0 mph - 0.01 in Rain , Thunderstorm Rain
11:42 PM 57.2 °F 55.4 °F 94% 29.86 in 5.0 mi NNW 11.5 mph - 0.05 in Rain , Thunderstorm Rain
11:53 PM 57.0 °F 55.0 °F 93% 29.83 in 6.0 mi NNW 3.5 mph - 0.07 in Rain , Thunderstorm Light Rain